Regional Weather Roundup
Issued by NWS

Home | Current Version | Previous Version | Text Only | Print | Product List | Glossary On
Versions: 1 2 3 4 5 6 7 8 9 10 11 12 13 14 15 16 17 18 19 20 21 22 23 24 25 26 27 28
000
ASUS45 KCYS 221110
RWRWY

WYOMING REGIONAL WEATHER ROUNDUP
NATIONAL WEATHER SERVICE CHEYENNE WY
500 AM MDT SAT JUL 22 2017

NOTE:  "FAIR" INDICATES FEW OR NO CLOUDS BELOW 12,000 FEET
WITH NO SIGNIFICANT WEATHER AND/OR OBSTRUCTIONS TO VISIBILITY.

WYZ001-221200-
YELLOWSTONE NATIONAL PARK

CITY           SKY/WX    TMP DP  RH WIND       PRES   REMARKS
LK YELLOWSTONE   N/A     38  35  89 CALM      30.39R
W YELLOWSTONE  NOT AVBL

$$
WYZ002>013-054>058-071-098>099-221200-
NORTHERN WYOMING

CITY           SKY/WX    TMP DP  RH WIND       PRES   REMARKS
JACKSON        FAIR      39  36  87 N3        30.30S
CODY           FAIR      59  34  39 SW3       30.20R
GREYBULL       FAIR      66  30  26 W8        30.08R
WORLAND        FAIR      59  36  42 NE3       30.10R
SHERIDAN       FAIR      62  38  40 CALM      30.12R
BUFFALO        FAIR      65  36  34 NW13      30.16R
GILLETTE       FAIR      55  38  52 CALM      30.08S
HULETT         FAIR      59  39  47 S3        30.11S
NEWCASTLE      FAIR      64  43  45 N6        30.08S

$$
WYZ014>020-022>026-101>103-221200-
CENTRAL WYOMING

CITY           SKY/WX    TMP DP  RH WIND       PRES   REMARKS
BIG PINEY      FAIR      43  35  73 MISG      30.32R
PINEDALE       FAIR      39  34  81 NW9       30.33S WCI  33
DUBOIS         FAIR      46  28  49 NW13      30.33R
LANDER         FAIR      61  28  28 W10       30.21R
RIVERTON       FAIR      60  30  32 NW14      30.18R
CASPER         FAIR      61  49  64 W10       30.15R
DOUGLAS        FAIR      60  52  74 CALM      30.13R

$$
WYZ021-027>030-104>119-221200-
SOUTHERN WYOMING

CITY           SKY/WX    TMP DP  RH WIND       PRES   REMARKS
EVANSTON       FAIR      56  41  57 CALM      30.31S
KEMMERER         N/A     50  32  50 N9        30.33S
FORT BRIDGER   FAIR      61  35  39 W9        30.33S
ROCK SPRINGS   FAIR      59  49  69 NW3       30.28R
RAWLINS        FAIR      56  46  69 NE3       30.28R
SARATOGA       FAIR      52  52 100 SE5       30.31S
LARAMIE        FAIR      50  48  93 SE7       30.29S
CHEYENNE       FAIR      59  52  77 CALM      30.19S
TORRINGTON     FAIR      61  57  87 E8        30.05F
PINE BLUFFS    FAIR      55  54  94 W7        30.12F

$$




USA.gov is the U.S. government's official web portal to all federal, state and local government web resources and services.